Chanute, KS

1:27 PM CDT on April 20, 2018 (GMT -0500)
Chanute Martin Johnson

Weather History for KCNU - May, 2013

Change the Weather History Date:

Thursday, May 30, 2013

  Actual Average Record
Temperature  
Mean Temperature 68 °F 70 °F  
Max Temperature 75 °F 80 °F 98 °F (1934)
Min Temperature 61 °F 60 °F 42 °F (1984)
Degree Days  
Heating Degree Days 0 1  
Month to date heating degree days 131 75  
Since 1 July heating degree days 4312 4477  
Cooling Degree Days 3 6  
Month to date cooling degree days 97 96  
Year to date cooling degree days 112 127  
Growing Degree Days 16 (Base 50)    
Moisture  
Dew Point 62 °F    
Average Humidity 83    
Maximum Humidity 93    
Minimum Humidity 73    
Precipitation  
Precipitation 1.24 in 0.22 in 4.70 in (1982)
Month to date precipitation 5.66 5.59  
Year to date precipitation 16.84 16.19  
Sea Level Pressure  
Sea Level Pressure 29.67 in    
Wind  
Wind Speed 11 mph (SE)    
Max Wind Speed 31 mph    
Max Gust Speed 40 mph    
Visibility 8 miles    
Events Rain , Thunderstorm    
T = Trace of Precipitation, MM = Missing Value Source: NWS Daily Summary

Daily Weather History Graph

Daily Weather History Graph

Search for Another Location

Airport or City:

Astronomy

May. 30, 2013 Rise Set
Actual Time 6:02 AM CDT 8:36 PM CDT
Civil Twilight 5:32 AM CDT 9:07 PM CDT
Nautical Twilight 4:54 AM CDT 9:45 PM CDT
Astronomical Twilight 4:12 AM CDT 10:27 PM CDT
Moon 12:42 AM CDT (5/30) 12:07 PM CDT (5/30)
Length of Visible Light 15h 35m
Length of Day
14h 34m
Waning Gibbous, 62% of the Moon is Illuminated
May 30
Waning Gibbous
May 31
Last Quarter
Jun 8
New
Jun 16
First Quarter
Jun 23
Full

Hourly Weather History & Observations

Time (CDT) Temp. Dew Point Humidity Pressure Visibility Wind Dir Wind Speed Gust Speed Precip Events Conditions
12:52 AM 63.0 °F 60.1 °F 90% 29.70 in 10.0 mi South 6.9 mph - 0.02 in   Scattered Clouds
1:52 AM 64.0 °F 61.0 °F 90% 29.71 in 10.0 mi South 6.9 mph - 0.02 in Rain Light Rain
2:52 AM 63.0 °F 61.0 °F 93% 29.72 in 10.0 mi South 16.1 mph - 0.01 in Rain Light Rain
3:49 AM 62.6 °F 60.8 °F 94% 29.69 in 10.0 mi SSE 18.4 mph 24.2 mph 0.01 in Rain Light Rain
3:52 AM 63.0 °F 61.0 °F 93% 29.67 in 10.0 mi SSE 17.3 mph 24.2 mph 0.01 in Rain Light Rain
4:52 AM 63.0 °F 60.1 °F 90% 29.67 in 6.0 mi SSE 19.6 mph 25.3 mph 0.11 in Rain Rain
5:26 AM 62.6 °F 60.8 °F 94% 29.65 in 8.0 mi SE 23.0 mph 31.1 mph 0.08 in Rain , Thunderstorm Light Thunderstorms and Rain
5:41 AM 62.6 °F 60.8 °F 94% 29.65 in 8.0 mi SE 24.2 mph 31.1 mph 0.11 in Rain Rain
5:52 AM 64.0 °F 61.0 °F 90% 29.64 in 8.0 mi SE 18.4 mph 24.2 mph 0.14 in Rain , Thunderstorm Light Rain
6:12 AM 64.4 °F 60.8 °F 88% 29.64 in 10.0 mi ESE 18.4 mph 27.6 mph 0.02 in Rain , Thunderstorm Light Thunderstorms and Rain
6:52 AM 64.0 °F 62.1 °F 93% 29.62 in 10.0 mi SE 15.0 mph 26.5 mph 0.05 in Rain , Thunderstorm Light Rain
7:52 AM 64.0 °F 61.0 °F 90% 29.62 in 10.0 mi SE 16.1 mph 24.2 mph 0.14 in Rain , Thunderstorm Light Rain
8:01 AM 64.4 °F 60.8 °F 88% 29.65 in 10.0 mi SSE 15.0 mph 21.9 mph N/A Thunderstorm Mostly Cloudy
8:44 AM 64.4 °F 62.6 °F 94% 29.66 in 10.0 mi SSE 17.3 mph 25.3 mph 0.01 in Rain Light Rain
8:52 AM 64.9 °F 62.1 °F 90% 29.64 in 10.0 mi SE 16.1 mph 26.5 mph 0.01 in   Overcast
9:30 AM 64.4 °F 62.6 °F 94% 29.66 in 10.0 mi SE 13.8 mph 21.9 mph 0.00 in   Overcast
9:52 AM 66.0 °F 63.0 °F 90% 29.64 in 10.0 mi SSE 17.3 mph 25.3 mph 0.00 in   Overcast
10:36 AM 66.2 °F 62.6 °F 88% 29.68 in 10.0 mi West 6.9 mph 20.7 mph N/A   Overcast
10:52 AM 66.9 °F 63.0 °F 87% 29.65 in 10.0 mi Calm Calm - N/A Thunderstorm Thunderstorm
11:09 AM 62.6 °F 60.8 °F 94% 29.69 in 2.5 mi NW 18.4 mph 26.5 mph 0.06 in Rain , Thunderstorm Light Thunderstorms and Rain
11:11 AM 62.6 °F 60.8 °F 94% 29.72 in 1.2 mi WNW 13.8 mph 26.5 mph 0.12 in Rain , Thunderstorm Thunderstorms and Rain
11:14 AM 62.6 °F 60.8 °F 94% 29.71 in 0.8 mi NW 19.6 mph 26.5 mph 0.20 in Rain , Thunderstorm Heavy Thunderstorms and Rain
11:23 AM 62.6 °F 60.8 °F 94% 29.71 in 1.0 mi NNW 15.0 mph 24.2 mph 0.32 in Rain , Thunderstorm Heavy Thunderstorms and Rain
11:32 AM 62.6 °F 60.8 °F 94% 29.72 in 1.2 mi NNW 18.4 mph 27.6 mph 0.40 in Rain , Thunderstorm Heavy Thunderstorms and Rain
11:41 AM 60.8 °F 60.8 °F 100% 29.72 in 1.5 mi NNW 15.0 mph 25.3 mph 0.51 in Rain , Thunderstorm Heavy Thunderstorms and Rain
11:52 AM 61.0 °F 59.0 °F 93% 29.70 in 2.0 mi North 13.8 mph 23.0 mph 0.62 in Rain , Thunderstorm Light Thunderstorms and Rain
12:00 PM 62.6 °F 59.0 °F 88% 29.71 in 6.0 mi North 8.1 mph 21.9 mph 0.01 in Rain , Thunderstorm Light Thunderstorms and Rain
12:52 PM 62.1 °F 60.1 °F 93% 29.66 in 9.0 mi ESE 9.2 mph - 0.10 in Rain , Thunderstorm Light Thunderstorms and Rain
1:15 PM 62.6 °F 60.8 °F 94% 29.68 in 10.0 mi SE 5.8 mph - 0.00 in Rain Light Rain
1:26 PM 62.6 °F 60.8 °F 94% 29.69 in 10.0 mi SSE 3.5 mph - 0.00 in Rain , Thunderstorm Light Thunderstorms and Rain
1:52 PM 64.0 °F 62.1 °F 93% 29.68 in 10.0 mi ESE 10.4 mph - 0.01 in Rain Light Rain
2:10 PM 64.4 °F 62.6 °F 94% 29.67 in 10.0 mi SE 19.6 mph 26.5 mph 0.00 in Rain , Thunderstorm Light Rain
2:19 PM 64.4 °F 62.6 °F 94% 29.67 in 7.0 mi SE 11.5 mph 26.5 mph 0.01 in Rain , Thunderstorm Light Rain
2:26 PM 64.4 °F 62.6 °F 94% 29.68 in 10.0 mi SSE 17.3 mph 25.3 mph 0.01 in Rain , Thunderstorm Light Thunderstorms and Rain
2:47 PM 64.4 °F 62.6 °F 94% 29.67 in 10.0 mi Variable 3.5 mph - 0.02 in   Scattered Clouds
2:52 PM 64.9 °F 63.0 °F 93% 29.65 in 10.0 mi Variable 4.6 mph - 0.02 in   Partly Cloudy
3:52 PM 70.0 °F 64.0 °F 81% 29.65 in 10.0 mi SSE 12.7 mph 19.6 mph N/A   Clear
4:52 PM 73.0 °F 64.9 °F 76% 29.64 in 10.0 mi SSW 12.7 mph 19.6 mph N/A   Clear
5:52 PM 73.9 °F 66.0 °F 76% 29.64 in 10.0 mi South 10.4 mph - N/A   Clear
6:52 PM 73.9 °F 66.0 °F 76% 29.64 in 10.0 mi SE 8.1 mph - N/A   Clear
7:52 PM 71.1 °F 64.9 °F 81% 29.67 in 10.0 mi SE 6.9 mph - N/A   Clear
8:52 PM 66.9 °F 64.0 °F 90% 29.68 in 10.0 mi Calm Calm - N/A   Clear
9:52 PM 66.9 °F 64.9 °F 93% 29.69 in 10.0 mi SE 9.2 mph - N/A   Clear
10:36 PM 66.2 °F 64.4 °F 94% 29.72 in 10.0 mi SE 9.2 mph - N/A   Partly Cloudy
10:52 PM 66.0 °F 64.0 °F 93% 29.69 in 10.0 mi SE 9.2 mph - N/A   Partly Cloudy
11:52 PM 66.0 °F 64.0 °F 93% 29.69 in 10.0 mi SE 5.8 mph - N/A   Scattered Clouds